Whiteman AFB, MO

12:47 PM CDT on May 21, 2018 (GMT -0500)
Whiteman Air Force Base

Weather History for KSZL - December, 2012

Change the Weather History Date:

Saturday, December 8, 2012

  Actual Average Record
Temperature  
Mean Temperature 41 °F -  
Max Temperature 45 °F 44 °F 61 °F (2015)
Min Temperature 37 °F 27 °F 3 °F (2005)
Degree Days  
Heating Degree Days 24    
Moisture  
Dew Point 40 °F    
Average Humidity 95    
Maximum Humidity 100    
Minimum Humidity 75    
Precipitation  
Precipitation 0.01 in - - ()
Sea Level Pressure  
Sea Level Pressure 29.94 in    
Wind  
Wind Speed 8 mph (NE)    
Max Wind Speed 12 mph    
Max Gust Speed -    
Visibility 9 miles    
Events Rain    
Averages and records for this station are not official NWS values.
T = Trace of Precipitation, MM = Missing Value Source: NWS Daily Summary

Daily Weather History Graph

Daily Weather History Graph

Search for Another Location

Airport or City:

Astronomy

Dec. 08, 2012 Rise Set
Actual Time 7:20 AM CST 4:52 PM CST
Civil Twilight 6:50 AM CST 5:22 PM CST
Nautical Twilight 6:17 AM CST 5:55 PM CST
Astronomical Twilight 5:44 AM CST 6:27 PM CST
Moon 1:48 AM CST (12/8) 1:20 PM CST (12/8)
Length of Visible Light 10h 31m
Length of Day
9h 32m
Waning Crescent, 28% of the Moon is Illuminated
Dec 8
Waning Crescent
Dec 13
New
Dec 19
First Quarter
Dec 28
Full
Jan 4
Last Quarter

Hourly Weather History & Observations

Time (CST) Temp. Windchill Dew Point Humidity Pressure Visibility Wind Dir Wind Speed Gust Speed Precip Events Conditions
12:18 AM 42.8 °F 37.5 °F 42.8 °F 100% 29.93 in 10.0 mi NNW 9.2 mph - N/A   Overcast
12:32 AM 42.8 °F 39.3 °F 42.8 °F 100% 29.94 in 10.0 mi NW 5.8 mph - N/A   Light Drizzle
12:41 AM 42.8 °F 37.5 °F 42.8 °F 100% 29.94 in 10.0 mi NW 9.2 mph - N/A   Overcast
12:55 AM 43.5 °F 38.3 °F 43.3 °F 99% 29.94 in 10.0 mi NW 9.2 mph - 0.00 in   Overcast
1:19 AM 42.8 °F 38.0 °F 42.8 °F 100% 29.93 in 10.0 mi NNW 8.1 mph - N/A   Overcast
1:33 AM 42.8 °F 38.0 °F 42.8 °F 100% 29.93 in 10.0 mi North 8.1 mph - N/A   Overcast
1:40 AM 42.8 °F 38.0 °F 42.8 °F 100% 29.93 in 10.0 mi North 8.1 mph - N/A   Overcast
1:55 AM 42.6 °F 37.8 °F 42.4 °F 99% 29.94 in 10.0 mi NNW 8.1 mph - 0.00 in   Overcast
2:55 AM 41.9 °F 36.3 °F 41.7 °F 99% 29.94 in 10.0 mi North 9.2 mph - N/A   Overcast
3:20 AM 39.2 °F 35.0 °F 39.2 °F 100% 29.95 in 10.0 mi North 5.8 mph - N/A   Scattered Clouds
3:55 AM 39.6 °F 34.0 °F 39.4 °F 99% 29.96 in 10.0 mi NNW 8.1 mph - N/A   Mostly Cloudy
4:22 AM 39.2 °F 33.0 °F 39.2 °F 100% 29.96 in 10.0 mi North 9.2 mph - N/A   Overcast
4:55 AM 38.8 °F 32.1 °F 38.7 °F 99% 29.96 in 10.0 mi North 10.4 mph - N/A   Overcast
5:29 AM 37.4 °F 30.8 °F 37.4 °F 100% 29.97 in 10.0 mi NNE 9.2 mph - N/A   Overcast
5:55 AM 38.1 °F 31.7 °F 37.9 °F 99% 29.98 in 10.0 mi North 9.2 mph - N/A   Overcast
6:55 AM 37.8 °F 32.5 °F 37.6 °F 99% 29.99 in 10.0 mi NNE 6.9 mph - N/A   Overcast
7:55 AM 37.6 °F 32.3 °F 37.2 °F 99% 30.01 in 10.0 mi NNE 6.9 mph - N/A   Mostly Cloudy
8:02 AM 37.4 °F 32.8 °F 35.6 °F 93% 30.01 in 10.0 mi NNE 5.8 mph - N/A   Scattered Clouds
8:55 AM 39.4 °F 34.5 °F 39.0 °F 99% 30.01 in 10.0 mi NNE 6.9 mph - N/A   Scattered Clouds
9:10 AM 39.2 °F 33.0 °F 39.2 °F 100% 30.01 in 10.0 mi NNE 9.2 mph - N/A   Mostly Cloudy
9:55 AM 40.8 °F 34.1 °F 39.2 °F 94% 30.01 in 10.0 mi ENE 11.5 mph - N/A   Overcast
10:55 AM 41.9 °F 36.3 °F 37.2 °F 83% 30.01 in 10.0 mi NE 9.2 mph - N/A   Overcast
11:55 AM 42.3 °F 38.6 °F 37.0 °F 82% 29.99 in 10.0 mi East 5.8 mph - N/A   Overcast
12:55 PM 42.8 °F 38.0 °F 37.0 °F 80% 29.96 in 10.0 mi ENE 8.1 mph - N/A   Overcast
1:37 PM 44.6 °F 41.4 °F 37.4 °F 76% 29.95 in 10.0 mi East 5.8 mph - N/A   Mostly Cloudy
1:55 PM 44.2 °F 41.0 °F 37.2 °F 76% 29.95 in 10.0 mi ENE 5.8 mph - N/A   Mostly Cloudy
2:31 PM 44.6 °F 40.7 °F 37.4 °F 76% 29.94 in 10.0 mi ENE 6.9 mph - N/A   Mostly Cloudy
2:55 PM 45.1 °F 41.4 °F 37.8 °F 75% 29.95 in 10.0 mi ESE 6.9 mph - N/A   Overcast
3:55 PM 43.7 °F 39.7 °F 38.1 °F 81% 29.94 in 10.0 mi ESE 6.9 mph - N/A   Overcast
4:28 PM 42.8 °F 38.0 °F 37.4 °F 81% 29.95 in 10.0 mi ESE 8.1 mph - N/A   Overcast
4:55 PM 42.3 °F 37.3 °F 38.1 °F 85% 29.94 in 10.0 mi ESE 8.1 mph - N/A   Overcast
5:43 PM 41.0 °F 35.2 °F 39.2 °F 93% 29.93 in 10.0 mi ESE 9.2 mph - N/A   Overcast
5:55 PM 41.7 °F 36.1 °F 38.7 °F 89% 29.93 in 10.0 mi ESE 9.2 mph - N/A   Overcast
6:08 PM 41.0 °F 34.7 °F 39.2 °F 93% 29.91 in 10.0 mi ESE 10.4 mph - N/A   Overcast
6:55 PM 41.7 °F 36.1 °F 39.2 °F 91% 29.91 in 10.0 mi ESE 9.2 mph - N/A   Overcast
7:55 PM 41.5 °F 35.4 °F 39.7 °F 93% 29.91 in 10.0 mi East 10.4 mph - N/A   Overcast
8:14 PM 41.0 °F 36.4 °F 39.2 °F 93% 29.91 in 10.0 mi East 6.9 mph - N/A   Overcast
8:20 PM 41.0 °F 35.2 °F 39.2 °F 93% 29.90 in 10.0 mi East 9.2 mph - N/A   Overcast
8:55 PM 41.2 °F 36.6 °F 40.3 °F 97% 29.91 in 10.0 mi East 6.9 mph - N/A   Overcast
9:26 PM 41.0 °F 36.4 °F 41.0 °F 100% 29.91 in 10.0 mi East 6.9 mph - N/A   Overcast
9:42 PM 41.0 °F 37.1 °F 41.0 °F 100% 29.91 in 8.0 mi East 5.8 mph - N/A   Overcast
9:55 PM 41.2 °F 38.2 °F 40.8 °F 99% 29.91 in 6.0 mi ENE 4.6 mph - 0.00 in   Light Drizzle
10:00 PM 41.0 °F 37.1 °F 41.0 °F 100% 29.90 in 5.0 mi East 5.8 mph - N/A   Drizzle
10:04 PM 41.0 °F 37.1 °F 41.0 °F 100% 29.90 in 5.0 mi East 5.8 mph - N/A   Light Drizzle
10:05 PM 41.0 °F 37.1 °F 41.0 °F 100% 29.90 in 4.0 mi East 5.8 mph - N/A   Light Drizzle
10:13 PM 41.0 °F 38.0 °F 41.0 °F 100% 29.90 in 4.0 mi East 4.6 mph - N/A   Drizzle
10:16 PM 41.0 °F 37.1 °F 41.0 °F 100% 29.90 in 4.0 mi ENE 5.8 mph - N/A Rain Light Rain
10:25 PM 41.0 °F 38.0 °F 41.0 °F 100% 29.91 in 7.0 mi ENE 4.6 mph - N/A Rain Light Rain
10:36 PM 41.0 °F 37.1 °F 41.0 °F 100% 29.91 in 6.0 mi NE 5.8 mph - N/A   Light Drizzle
10:44 PM 41.0 °F 37.1 °F 41.0 °F 100% 29.91 in 6.0 mi NE 5.8 mph - N/A   Light Drizzle
10:55 PM 40.6 °F 36.7 °F 40.6 °F 100% 29.91 in 7.0 mi NE 5.8 mph - 0.01 in   Light Drizzle
11:05 PM 41.0 °F 38.0 °F 41.0 °F 100% 29.90 in 7.0 mi ENE 4.6 mph - N/A   Overcast
11:18 PM 41.0 °F 37.1 °F 41.0 °F 100% 29.91 in 7.0 mi East 5.8 mph - N/A   Overcast
11:26 PM 41.0 °F 38.0 °F 41.0 °F 100% 29.90 in 7.0 mi East 4.6 mph - N/A   Overcast
11:55 PM 41.0 °F 37.1 °F 41.0 °F 100% 29.89 in 5.0 mi East 5.8 mph - 0.00 in   Overcast
11:57 PM 41.0 °F 37.1 °F 41.0 °F 100% 29.89 in 4.0 mi ESE 5.8 mph - N/A   Overcast